This demonstration page uses our WeatherBlox Daily Observations layout. Learn more.

Left ArrowRight Arrow

34.74481, -87.66753

Hourly Observations for September 29, 2019

Temp ( °F °C ) Dew Point ( °F °C ) Humidity (%) Winds ( mph kmh ) Pressure ( in mb ) Visibility ( mi km ) Precip ( " mm )
12:53 am 00:53 Clear 72 22.2 68 20 87 87 Calm 30.10 1019 10 16 0.00 0.00
1:53 am 01:53 Clear 73 22.8 66 18.9 79 79 Calm 30.11 1020 10 16 0.00 0.00
2:53 am 02:53 Clear 70 21.1 66 18.9 87 87 Calm 30.10 1019 10 16 0.00 0.00
3:53 am 03:53 Clear 71 21.7 66 18.9 84 84 Calm 30.11 1020 10 16 0.00 0.00
4:53 am 04:53 Clear 70 21.1 66 18.9 87 87 Calm 30.12 1020 10 16 0.00 0.00
5:53 am 05:53 Clear 71 21.7 67 19.4 87 87 Calm 30.14 1021 10 16 0.00 0.00
6:53 am 06:53 Sunny 70 21.1 66 18.9 87 87 Calm 30.16 1021 9 14 0.00 0.00
7:53 am 07:53 Sunny 74 23.3 68 20 82 82 Calm 30.18 1022 10 16 0.00 0.00
8:53 am 08:53 Mostly Sunny 78 25.6 69 20.6 74 74 SE 6 9 30.18 1022 10 16 0.00 0.00
9:53 am 09:53 Cloudy 86 30 70 21.1 59 59 VRB 3 6 30.18 1022 10 16 0.00 0.00
10:53 am 10:53 Sunny 90 32.2 70 21.1 52 52 S 5 7 30.17 1022 10 16 0.00 0.00
11:53 am 11:53 Mostly Cloudy 92 33.3 69 20.6 47 47 NNW 5 7 30.16 1021 10 16 0.00 0.00
12:53 pm 12:53 Mostly Sunny 94 34.4 69 20.6 44 44 Calm 30.14 1021 10 16 0.00 0.00
1:53 pm 13:53 Mostly Cloudy 93 33.9 69 20.6 46 46 E 3 6 30.11 1020 10 16 0.00 0.00
3:53 pm 15:53 Sunny 96 35.6 66 18.9 37 37 SE 3 6 30.08 1019 10 16 0.00 0.00
4:53 pm 16:53 Mostly Cloudy 96 35.6 67 19.4 39 39 VRB 3 6 30.07 1018 10 16 0.00 0.00
5:53 pm 17:53 Mostly Cloudy 93 33.9 68 20 44 44 Calm 30.07 1018 10 16 0.00 0.00
6:53 pm 18:53 Clear 86 30 69 20.6 57 57 Calm 30.08 1019 10 16 0.00 0.00
7:53 pm 19:53 Mostly Cloudy 83 28.3 70 21.1 65 65 Calm 30.09 1019 10 16 0.00 0.00
9:53 pm 21:53 Mostly Clear 78 25.6 71 21.7 79 79 Calm 30.11 1020 10 16 0.00 0.00
10:53 pm 22:53 Mostly Clear 77 25 70 21.1 79 79 Calm 30.11 1020 10 16 0.00 0.00
11:53 pm 23:53 Clear 75 23.9 69 20.6 82 82 Calm 30.11 1020 10 16 0.00 0.00

Powered by AerisWeather